This is the latest recevied weather packets stored in our database for station/object VK4TOM-13. If no packets are shown the sender has not sent any weather packets the latest 10 day(s).
| Time | Temp. | Humidity | Pressure | Rain* | Wind** | Luminosity | Snow |
|---|---|---|---|---|---|---|---|
| 1788243300 | 25° C | 70% | 1022.8 hPa | 0 mm | - | - | - |
| 1788242688 | 26.11° C | 65% | 1022.6 hPa | 0 mm | - | - | - |
| 1788242087 | 26.67° C | 70% | 1022.7 hPa | 0 mm | - | - | - |
| 1788241486 | 26.67° C | 68% | 1022.8 hPa | 0 mm | - | - | - |
| 1788240885 | 26.67° C | 61% | 1022.8 hPa | 0 mm | - | - | - |
| 1788240676 | 26.67° C | 60% | 1022.8 hPa | 0 mm | - | - | - |
| 1788240459 | 26.67° C | 60% | 1022.8 hPa | 0 mm | - | - | - |
| 1788240255 | 27.22° C | 58% | 1022.8 hPa | 0 mm | - | - | - |
| 1788239653 | 27.78° C | 50% | 1022.7 hPa | 0 mm | - | - | - |
| 1788239053 | 28.33° C | 47% | 1022.6 hPa | 0 mm | - | - | - |
| 1788238501 | 28.33° C | 47% | 1022.7 hPa | 0 mm | - | - | - |
| 1788238240 | 28.89° C | 46% | 1022.7 hPa | 0 mm | - | - | - |
| 1788237997 | 28.89° C | 45% | 1022.9 hPa | 0 mm | - | - | - |
| 1788237396 | 28.89° C | 44% | 1022.9 hPa | 0 mm | - | - | - |
| 1788236795 | 28.89° C | 44% | 1022.9 hPa | 0 mm | - | - | - |
| 1788236194 | 29.44° C | 45% | 1023 hPa | 0 mm | - | - | - |
| 1788236013 | 29.44° C | 45% | 1023 hPa | 0 mm | - | - | - |
| 1788235734 | 29.44° C | 45% | 1023.1 hPa | 0 mm | - | - | - |
| 1788235133 | 29.44° C | 48% | 1023.2 hPa | 0 mm | - | - | - |
| 1788233827 | 28.89° C | 51% | 1023.6 hPa | 0 mm | - | - | - |
| 1788233039 | 28.33° C | 53% | 1023.8 hPa | 0 mm | - | - | - |
| 1788231618 | 28.33° C | 56% | 1024.4 hPa | 0 mm | - | - | - |
| 1788230416 | 28.33° C | 68% | 1024.6 hPa | 0 mm | - | - | - |
| 1788229214 | 27.78° C | 70% | 1024.9 hPa | 0 mm | - | - | - |
| 1788220377 | 24.44° C | 70% | 1027.1 hPa | 0 mm | - | - | - |
* Rain since midnight (hover to see other rain measurements)
** Current wind speed in m/s (hover to see current wind gust speed)